Wind_Speed
11 10 10 10 10 10 10 9 8 7 7 6 6 5 5 4 4 3 2 2 2 2 2 1 1 2 3 4 5 6 7 7 7 8 9 9 9 10 10 11 12 13 13 14 15 15 15 16 16 17 18 18 19 19 20 20 20 21 21 21 21 21 21 22 22 23 24 24 25
10 10 9 9 8 8 8 7 7 7 6 6 6 5 4 4 3 3 3 3 3 2 1 0 1 3 4 5 5 6 7 8 8 9 9 9 9 10 10 11 12 13 14 14 15 15 16 17 17 18 19 19 19 20 20 20 20 21 21 21 21 21 22 22 23 23 24 25 25
10 10 9 8 8 7 7 7 6 6 6 6 5 5 4 4 4 3 3 3 2 1 1 1 2 3 4 5 5 6 7 8 8 9 9 10 10 10 11 12 12 13 14 14 15 16 16 17 18 18 19 19 20 20 21 21 21 21 21 21 22 22 22 23 24 24 25 25 25
10 10 9 9 8 8 7 7 6 6 6 5 4 4 4 5 4 4 3 3 2 1 2 3 3 4 4 5 6 6 7 8 8 9 10 10 10 11 11 12 13 14 14 15 16 16 17 17 18 19 19 20 20 21 21 21 21 21 21 22 22 23 23 24 25 25 25 25 26
10 10 9 9 8 8 7 7 7 6 6 5 3 3 4 5 5 4 3 3 2 2 3 4 4 4 4 5 6 6 7 8 9 9 10 10 11 12 12 13 13 14 15 15 16 17 17 18 18 19 19 20 20 21 21 21 21 22 22 23 23 24 24 25 25 26 26 26 26
10 9 9 9 8 8 7 7 6 6 5 4 3 3 4 4 4 4 3 2 2 3 3 4 4 4 4 5 6 7 8 8 9 10 10 11 12 12 13 13 14 15 15 16 16 17 17 18 19 19 20 20 21 21 21 21 22 23 24 24 24 25 26 26 26 27 27 27 28
9 9 9 8 8 8 7 7 6 5 4 4 3 3 4 4 4 4 2 1 2 3 4 4 4 4 5 6 6 7 8 9 10 10 11 12 12 13 13 14 15 15 16 17 17 18 18 19 19 20 20 21 21 21 22 22 23 24 25 26 26 26 26 27 27 28 28 29 29
9 8 8 8 8 8 7 6 5 4 3 4 4 4 4 4 4 3 1 1 2 3 4 4 4 5 6 6 7 7 8 9 10 11 12 12 13 13 14 15 15 16 17 17 18 18 19 19 20 20 21 21 22 22 23 23 24 25 26 27 27 27 27 28 28 29 29 30 31
8 8 8 8 7 7 6 5 5 4 4 4 4 4 4 4 3 2 1 2 3 4 4 4 5 6 7 7 7 8 9 10 11 12 12 13 13 14 15 15 16 17 17 18 19 19 20 20 21 21 21 22 22 23 24 25 26 26 27 28 28 28 29 29 29 30 30 31 31
8 8 7 7 7 6 5 5 5 5 5 5 4 4 4 3 2 2 2 3 4 4 4 5 6 7 7 7 8 8 9 10 11 12 13 13 14 15 15 16 17 17 18 19 19 20 21 21 21 22 22 23 24 25 25 26 26 27 27 27 28 29 29 30 30 30 30 30 30
7 7 7 7 6 6 5 5 5 5 5 5 5 4 3 3 2 2 3 3 3 4 4 6 7 7 7 7 8 9 10 11 12 13 13 14 15 15 16 16 17 18 19 19 20 21 21 22 22 23 23 24 25 25 26 26 26 27 27 28 28 29 30 30 30 30 29 30 30
7 7 7 6 6 6 5 5 5 5 5 5 4 4 3 2 2 3 3 3 3 4 5 6 6 7 7 8 9 10 11 12 12 13 14 15 15 16 16 17 18 18 19 20 21 21 22 22 23 24 25 25 26 26 26 27 27 27 27 28 28 28 29 29 29 29 29 29 30
7 6 6 6 6 6 5 5 5 5 5 4 4 4 3 3 3 3 3 3 4 4 5 6 6 7 7 8 9 10 11 12 13 14 14 15 16 17 17 18 18 19 20 21 21 22 23 23 24 24 25 26 26 27 27 27 27 27 27 27 28 28 28 29 29 29 30 30 30
6 6 6 6 6 6 5 5 5 4 4 3 3 3 3 3 3 3 4 4 5 5 5 6 6 7 8 9 10 11 12 13 13 14 15 16 17 17 18 19 19 20 21 22 22 23 23 24 25 25 26 27 27 28 28 27 27 27 26 26 27 27 28 28 29 29 29 30 29
6 6 6 6 5 5 5 5 4 4 3 3 3 3 2 2 2 3 4 5 5 6 6 6 7 8 9 10 11 11 12 13 14 15 16 17 17 18 19 20 21 21 22 23 24 24 24 25 25 26 27 27 28 28 28 27 26 25 25 25 25 27 28 28 29 29 29 29 29
6 6 6 5 5 4 4 4 3 3 2 2 2 2 2 2 3 4 5 6 6 6 7 7 8 9 10 11 11 12 13 14 15 16 17 18 18 19 20 21 22 22 23 24 25 25 25 26 26 27 27 28 28 28 27 26 25 24 24 24 25 26 27 28 28 29 29 29 29
6 5 5 4 4 3 3 3 3 2 2 2 2 2 3 3 4 5 5 6 6 7 8 9 10 10 11 12 12 13 14 15 16 17 18 19 19 20 21 22 23 23 24 25 25 26 26 27 27 28 28 28 28 27 26 25 24 24 24 25 25 26 27 27 27 28 28 29 29
5 4 4 3 3 3 2 2 2 2 2 2 2 3 4 4 5 6 6 6 7 8 9 10 11 11 12 13 13 14 15 16 17 18 19 19 20 21 22 23 23 24 24 25 26 27 27 28 28 29 29 28 27 26 25 24 24 24 25 26 26 27 27 27 27 27 27 28 29
4 3 3 3 3 3 2 3 3 3 3 2 3 3 4 5 6 6 6 7 8 9 10 11 11 12 13 13 14 15 16 17 18 19 20 20 21 22 22 23 24 24 25 26 26 27 28 29 29 29 28 28 26 25 24 24 24 25 26 27 27 27 27 26 26 27 27 28 29
3 2 2 3 3 3 3 3 3 3 3 3 3 4 4 5 6 6 7 8 8 9 10 11 12 13 14 15 16 17 17 18 19 20 20 21 22 22 23 24 24 25 25 26 27 28 28 29 29 29 28 26 25 24 24 24 25 26 27 27 27 27 27 27 27 27 28 29 30
3 2 3 3 3 3 3 3 4 3 3 3 3 4 5 5 6 7 7 8 9 10 10 11 12 13 14 16 17 18 18 19 20 20 21 21 22 23 23 24 25 25 26 27 27 28 28 28 28 28 26 25 24 24 24 25 25 26 26 27 27 27 27 27 27 27 28 29 30
2 3 3 4 4 4 4 4 4 3 3 3 3 4 5 6 6 7 8 9 9 10 11 12 13 14 15 16 17 18 19 20 20 21 21 22 22 23 24 24 25 26 26 27 27 28 28 28 27 26 26 25 24 24 24 25 25 26 26 27 27 27 27 28 27 28 28 29 30
3 3 4 4 4 4 4 4 3 3 3 3 3 4 5 6 7 7 8 9 9 10 11 12 13 15 16 17 18 19 20 20 21 21 22 22 23 24 24 25 25 26 26 27 27 27 27 26 26 25 25 25 25 25 25 25 25 25 26 27 27 28 28 28 28 28 29 29 30
4 4 4 4 3 3 3 3 3 3 3 3 4 5 5 6 7 8 9 9 10 11 12 13 14 15 16 17 18 19 19 20 21 22 23 23 23 24 25 25 25 26 26 26 26 26 25 25 25 25 25 25 25 26 25 25 25 25 26 27 28 28 29 29 29 29 29 30 30
4 4 3 3 3 3 3 3 3 3 3 4 4 5 6 7 8 8 9 10 10 11 12 14 15 16 17 17 18 19 20 20 22 23 24 24 24 25 25 25 26 26 26 26 25 24 24 24 24 25 25 26 26 26 26 25 25 25 26 27 28 28 29 30 30 29 29 30 30
4 3 2 2 2 2 2 3 3 3 3 4 5 6 7 8 8 9 10 10 11 12 13 14 16 16 17 18 19 19 20 21 22 23 24 25 25 25 25 26 26 26 26 25 25 24 24 24 24 24 25 26 26 26 26 26 25 26 26 27 27 28 28 29 29 30 30 29 29
3 2 2 2 2 2 2 3 3 3 4 5 6 7 7 8 9 9 10 11 12 13 14 15 16 17 18 19 19 20 21 22 23 24 24 25 25 26 26 26 26 26 26 25 25 25 25 24 24 24 24 25 26 26 26 26 27 27 26 26 26 26 27 28 29 30 30 30 29
2 1 1 2 2 2 2 3 3 4 5 6 7 7 8 9 9 10 11 12 13 14 15 16 17 18 19 20 20 21 22 23 24 24 25 25 25 26 26 26 27 27 26 26 25 25 25 24 24 24 24 25 26 27 27 27 27 27 26 26 26 26 26 27 28 29 29 29 28
1 1 1 2 2 2 2 3 4 5 6 6 7 8 8 9 10 10 11 13 14 15 16 17 18 19 20 20 21 22 23 23 24 25 25 25 26 26 26 26 27 27 27 26 25 25 24 24 24 24 24 25 26 27 27 26 26 26 26 26 26 26 26 27 27 28 28 28 27
1 1 1 1 1 2 2 3 4 5 6 7 8 8 9 9 10 11 12 13 15 16 17 18 19 20 20 21 22 23 23 24 24 25 25 26 26 26 27 27 27 27 27 26 25 24 24 24 24 24 25 25 26 27 27 26 26 26 26 25 25 26 27 27 28 28 27 27 27
1 1 1 1 1 2 3 4 5 6 7 7 8 9 9 10 11 12 13 14 16 17 18 19 19 20 21 22 22 23 24 24 25 25 25 26 26 27 27 27 27 28 27 26 24 24 24 24 25 25 25 26 27 27 27 26 26 25 25 25 25 26 27 27 27 26 26 27 27
1 1 1 1 1 2 3 4 5 6 7 8 8 9 9 10 11 12 14 15 16 17 18 19 20 21 22 22 23 23 24 25 25 25 25 26 26 27 27 27 28 27 27 25 24 24 24 25 25 26 26 27 27 27 27 26 25 25 25 25 25 25 26 26 26 26 26 27 27
1 1 1 1 2 3 4 5 6 7 8 8 9 9 10 11 12 14 15 16 17 18 19 19 20 21 22 23 23 24 24 25 25 25 25 26 26 27 27 28 27 27 26 25 25 25 25 26 26 27 27 27 27 27 26 26 25 24 24 24 24 24 25 25 25 26 27 27 26
1 1 1 2 3 4 5 6 6 7 8 8 9 9 10 12 13 14 16 17 17 18 19 20 20 21 22 23 23 24 25 25 25 25 26 26 27 27 27 28 27 27 27 26 26 26 26 27 27 27 28 28 27 26 26 25 24 24 24 24 24 24 24 25 25 26 26 26 25
1 1 2 3 4 4 5 6 7 8 8 9 9 10 11 13 14 15 16 17 18 19 19 20 21 21 22 22 23 23 24 25 26 26 26 27 27 27 28 28 28 28 28 27 27 26 27 27 28 28 28 27 26 26 25 24 24 23 23 23 23 24 24 25 25 25 24 24 24
1 2 3 4 4 5 6 7 7 8 8 9 10 11 12 14 15 16 17 18 18 19 20 21 21 22 22 23 23 23 24 25 26 26 27 27 27 28 28 29 29 30 29 28 27 27 27 27 28 28 27 27 26 25 24 23 23 23 23 23 23 24 25 25 24 24 23 23 23
2 3 4 4 5 6 6 7 8 8 9 10 11 12 13 14 16 17 17 18 19 19 20 21 22 22 23 23 24 24 24 25 26 27 27 27 27 28 29 30 30 30 30 29 28 27 27 27 27 27 27 26 25 24 23 22 22 22 22 23 23 24 24 24 23 23 23 23 24
3 4 4 5 6 6 7 7 8 9 10 10 12 13 14 15 16 17 18 18 19 20 21 21 22 22 23 24 24 25 25 25 26 27 27 28 28 28 29 30 31 31 31 30 29 28 28 27 27 26 26 25 25 24 23 21 21 21 22 22 23 23 23 23 23 23 23 24 26
4 4 5 6 6 7 7 8 8 9 10 11 12 13 15 16 17 18 18 18 19 20 21 22 22 23 24 24 25 25 26 26 26 27 27 28 28 28 29 30 31 31 32 31 30 29 28 27 26 26 25 25 24 23 21 21 21 21 22 22 22 23 23 22 22 23 24 26 28
4 5 5 6 6 7 8 8 9 10 11 12 13 14 15 16 17 18 18 19 19 20 21 22 23 24 24 24 25 26 26 27 27 27 27 28 28 28 29 29 30 31 32 32 31 29 28 26 26 25 25 24 23 22 21 20 21 21 22 22 22 23 23 22 23 24 26 27 28
4 5 6 6 7 7 8 9 10 11 11 12 13 14 15 16 17 18 19 19 20 21 22 22 23 24 24 25 25 26 27 27 28 28 28 28 28 28 29 29 31 31 32 32 31 29 27 26 25 25 24 23 22 21 21 21 21 22 22 22 22 22 23 23 24 25 27 27 27
Wind_Direction
102 101 100 100 100 99 99 99 102 104 104 102 97 97 97 95 89 81 71 61 58 61 59 43 358 346 345 345 348 350 352 352 349 347 345 344 342 339 334 331 328 327 325 324 322 320 318 317 315 314 312 311 310 309 308 307 306 305 304 304 304 304 304 304 303 303 303 302 301
95 94 93 91 90 90 90 91 93 94 94 92 90 90 92 92 89 80 67 59 57 62 72 50 337 338 343 347 351 353 351 347 345 343 342 341 339 335 331 328 326 324 322 321 320 318 317 316 315 314 312 311 309 308 306 305 304 303 302 302 303 303 303 303 302 302 302 301 300
95 95 95 96 97 97 95 93 91 88 84 80 77 76 75 74 72 67 65 66 67 69 45 343 341 345 349 351 354 351 348 344 341 340 339 338 335 332 328 325 323 321 320 319 318 317 316 315 314 312 311 310 308 306 305 304 303 302 301 301 302 303 303 302 301 301 301 300 300
102 102 102 104 104 104 102 98 95 90 85 81 76 69 66 66 65 62 62 65 62 35 356 345 349 354 355 353 350 346 343 340 339 338 337 335 332 329 326 323 321 320 318 317 316 316 315 314 313 311 310 308 306 304 303 303 301 301 300 300 301 301 302 301 300 300 299 299 298
108 108 109 109 109 106 102 98 94 94 94 95 90 76 69 72 73 65 54 46 32 3 347 346 355 358 353 348 345 342 339 338 337 336 335 332 329 326 324 322 320 318 317 316 315 315 314 313 312 310 308 307 304 303 302 301 301 300 300 299 300 300 300 300 300 299 299 298 298
111 112 112 112 110 106 102 98 97 100 105 111 98 77 69 77 83 73 51 32 7 341 336 345 352 352 347 344 342 340 337 336 336 335 333 330 328 326 323 321 319 317 315 315 314 314 313 313 311 309 307 306 304 302 302 301 301 301 300 300 300 300 300 300 300 300 299 298 298
114 112 110 108 107 106 104 103 104 107 109 103 83 65 61 71 83 79 61 16 337 332 338 345 348 345 343 342 340 337 334 333 334 333 332 330 327 325 323 320 318 316 315 314 313 313 313 312 310 308 307 305 304 303 303 302 301 301 301 301 300 300 300 300 300 300 300 299 298
112 108 104 101 101 102 104 106 107 102 91 79 66 53 51 61 76 81 64 346 335 340 344 342 338 337 338 339 337 334 332 331 332 332 331 329 327 324 322 319 317 315 314 314 313 313 312 311 309 307 306 305 304 303 303 303 302 301 301 301 300 300 300 300 301 301 300 298 298
110 103 98 94 92 91 92 94 92 84 74 68 61 51 46 50 61 62 20 350 351 351 343 331 327 329 333 335 334 332 331 330 330 329 328 327 325 323 320 318 316 315 314 313 313 312 311 309 308 306 305 304 303 303 303 303 302 301 301 300 300 301 301 301 301 300 300 299 297
112 104 97 91 86 82 78 74 68 64 61 61 60 56 48 43 39 19 359 359 359 350 333 320 320 326 330 332 331 330 329 328 327 326 325 324 323 321 319 317 316 314 313 312 312 311 310 308 307 305 304 304 303 302 303 303 302 301 300 300 300 301 301 301 301 301 300 299 297
113 103 96 91 87 83 75 65 58 54 52 51 53 55 52 39 15 356 353 1 351 335 321 316 320 325 328 328 327 326 326 325 324 323 322 321 320 319 317 315 314 313 312 311 311 310 309 308 306 305 304 303 303 302 302 302 301 300 300 300 300 301 302 302 302 302 301 300 298
105 96 89 86 85 82 75 66 59 54 50 45 41 42 43 32 2 345 341 345 335 322 315 315 319 323 323 322 322 323 323 323 322 321 320 319 318 317 315 313 312 311 310 309 309 309 308 307 305 304 303 303 303 302 302 302 301 300 300 300 301 302 303 303 303 303 302 302 300
95 88 82 80 79 78 74 69 63 58 52 43 33 31 31 24 357 336 327 326 321 317 314 315 317 318 317 317 318 320 321 320 320 319 318 317 316 314 313 311 310 309 308 307 308 307 307 306 305 304 303 302 302 302 302 301 300 300 300 301 303 304 304 305 305 305 304 303 302
88 82 79 77 77 76 76 74 69 65 57 44 31 27 27 16 346 323 316 316 317 316 315 314 313 313 314 315 317 319 319 319 318 318 316 315 314 312 311 309 308 307 307 306 306 306 305 305 304 303 302 302 302 302 301 301 300 300 301 303 305 306 307 307 307 306 306 305 304
86 80 77 75 76 77 80 81 78 72 62 47 31 23 18 357 326 310 308 313 314 314 313 311 311 312 315 318 319 319 319 319 318 316 315 313 312 311 309 308 307 306 306 306 306 305 305 304 304 303 303 302 301 301 301 300 300 300 302 304 307 308 309 308 308 307 306 306 305
86 80 76 75 76 79 84 89 88 82 69 49 25 8 343 319 305 304 308 313 314 314 312 311 313 315 319 322 322 321 319 318 317 315 313 312 310 309 308 307 306 306 306 306 306 305 305 304 304 304 303 302 301 301 300 300 300 301 303 306 308 309 309 308 308 307 307 307 306
88 82 77 74 73 75 81 88 89 84 66 39 9 340 318 308 307 310 314 316 316 315 314 315 317 319 322 322 322 321 318 316 315 313 311 310 309 308 307 306 306 306 306 306 306 305 305 305 304 304 303 302 301 300 299 300 301 302 305 308 310 310 309 308 307 307 307 307 307
90 83 75 67 64 62 66 71 71 65 49 24 356 332 319 314 316 319 319 318 316 315 316 318 321 322 322 321 320 319 317 315 313 311 310 309 308 307 307 306 307 306 306 306 305 305 305 305 305 305 304 302 301 300 299 300 302 304 307 309 309 309 308 307 306 306 306 306 306
93 82 66 55 53 55 56 55 53 47 34 13 348 330 321 320 320 321 319 316 315 315 317 319 321 321 320 319 317 317 315 314 312 310 309 308 308 307 307 307 307 307 306 306 305 305 305 305 305 304 304 302 301 300 300 301 303 305 307 308 309 308 308 307 306 306 306 306 305
96 74 50 43 47 51 50 46 43 37 24 5 344 329 322 321 321 319 317 314 314 316 317 319 319 318 318 317 316 315 314 313 312 310 309 309 309 308 308 308 307 307 306 306 305 305 305 305 305 304 304 302 301 301 302 303 305 306 308 308 308 308 307 307 307 306 306 305 305
84 55 41 41 43 44 41 38 35 29 19 359 339 327 322 320 319 316 313 312 314 316 316 316 316 315 315 315 315 314 314 313 312 311 310 310 309 308 308 308 307 307 306 306 306 306 306 305 305 305 304 303 303 303 304 306 307 308 308 309 308 308 308 307 307 306 306 305 305
68 49 44 43 40 37 34 30 28 22 11 350 333 323 320 318 315 312 310 311 313 314 314 314 314 314 314 314 314 314 313 313 312 311 310 310 309 308 308 307 307 306 306 306 306 307 307 306 306 306 306 305 305 306 307 308 309 310 310 310 310 309 309 308 307 306 306 305 305
62 53 49 43 36 31 27 23 21 11 356 337 324 318 316 314 310 309 309 310 312 312 312 312 312 313 313 314 314 314 313 313 312 312 311 310 309 308 307 307 306 306 306 306 307 307 308 308 308 308 308 308 308 309 309 310 311 311 312 312 312 311 311 310 308 307 306 305 305
64 57 49 41 32 24 18 13 6 353 338 323 317 314 312 310 308 308 309 311 312 312 312 311 312 313 313 314 314 314 313 313 312 311 311 310 309 308 307 307 306 306 306 306 307 308 309 308 309 309 309 309 310 310 311 312 312 313 314 314 314 313 312 311 310 309 307 306 305
65 57 46 35 23 13 6 359 349 336 323 315 312 311 309 307 307 308 309 311 312 312 312 312 313 313 314 315 315 314 314 313 312 311 310 310 309 308 307 307 306 306 306 307 308 308 309 309 309 309 309 310 310 311 312 313 314 315 316 316 315 314 313 312 311 309 308 307 306
65 55 38 21 12 2 355 345 334 323 315 311 308 306 305 304 306 308 309 309 310 311 311 312 313 314 315 314 314 314 313 313 312 311 310 309 308 308 307 306 306 306 307 307 308 308 308 309 308 309 309 310 311 312 314 315 316 317 317 317 316 314 312 311 310 309 308 307 306
69 51 27 10 2 355 344 333 324 315 308 304 303 302 302 303 305 306 307 307 309 311 312 313 314 314 315 314 314 313 312 312 312 311 309 308 307 307 306 306 306 306 307 308 308 308 308 308 309 309 309 310 312 313 315 317 318 318 318 317 315 314 312 310 309 308 308 307 306
69 45 21 9 1 351 337 325 314 305 301 299 299 300 301 302 303 304 305 307 309 311 312 313 315 315 315 314 313 312 312 311 310 310 309 308 307 306 306 306 306 307 307 308 309 309 308 308 309 310 311 312 313 315 316 317 318 318 317 316 314 313 311 309 307 307 306 306 306
69 40 27 14 3 345 327 312 302 296 295 296 297 298 299 300 301 302 304 307 309 311 312 314 315 315 314 313 312 312 311 310 310 309 308 308 307 306 306 306 306 307 308 309 309 309 309 309 310 311 312 313 315 315 316 316 317 317 316 315 313 311 309 307 306 305 305 305 306
62 45 35 23 2 334 311 298 292 291 292 293 294 296 297 299 300 302 304 307 309 311 313 315 315 314 312 312 311 310 309 309 309 309 308 307 307 307 307 306 307 308 309 310 310 309 309 310 311 312 313 314 315 315 315 315 315 315 314 312 311 310 308 306 305 304 304 306 307
61 45 38 22 345 310 294 288 287 287 288 289 291 293 295 297 299 302 305 308 310 313 315 316 314 312 311 311 310 309 308 308 308 308 308 307 307 307 307 307 308 309 310 311 310 310 310 311 312 313 314 314 315 314 314 314 314 313 312 310 309 309 308 306 305 305 306 308 309
51 35 24 353 310 290 285 283 283 284 285 287 289 292 295 297 299 303 307 310 312 314 315 315 313 311 311 310 309 308 307 307 307 307 307 307 307 307 307 307 308 309 310 311 310 311 311 312 313 313 314 314 314 313 312 312 312 311 310 308 308 308 308 307 306 306 307 309 310
33 15 351 316 292 284 280 280 280 281 284 286 289 292 295 298 301 306 310 313 314 314 314 313 311 310 309 308 307 307 306 306 306 306 307 307 307 307 307 308 308 309 310 311 311 311 312 312 313 313 314 314 313 312 311 311 310 309 308 307 307 307 307 307 306 307 307 308 308
6 340 315 296 284 280 278 277 278 281 283 287 290 293 296 300 304 308 312 314 315 315 313 312 310 308 307 306 306 305 305 305 306 307 308 308 308 308 308 308 308 309 310 310 311 312 312 312 313 313 314 313 312 312 310 310 309 308 307 306 306 307 307 307 307 307 307 307 306
321 303 292 282 278 276 275 276 278 282 285 288 292 295 299 304 307 311 313 315 316 314 312 311 309 308 307 306 305 305 305 306 307 308 309 309 309 309 308 307 308 309 310 310 311 311 312 312 312 313 313 313 312 310 310 309 308 307 307 306 307 307 308 308 307 306 305 304 304
283 279 276 274 273 273 274 277 280 284 287 290 294 298 303 307 311 314 316 317 315 313 310 309 309 307 306 306 306 306 306 307 308 309 310 310 310 309 308 307 308 309 310 310 310 310 311 311 311 312 312 311 310 310 309 308 308 308 308 307 308 308 309 308 307 305 304 304 304
269 270 270 271 271 273 275 279 283 286 289 292 297 302 306 310 313 316 318 317 314 310 308 307 306 306 306 306 307 307 308 309 309 310 310 311 310 309 308 308 308 309 310 310 310 310 310 310 310 310 311 310 310 309 309 309 308 308 308 308 308 309 309 308 307 306 305 305 305
262 267 268 270 272 275 278 281 285 288 291 296 301 306 310 313 314 316 317 316 311 308 306 306 305 305 306 307 308 308 309 310 311 311 311 311 311 310 309 308 308 309 310 311 311 310 309 309 309 309 310 310 309 310 310 310 309 309 309 309 309 309 308 308 307 307 306 307 306
260 265 268 271 274 277 281 285 288 292 296 301 305 310 313 315 314 315 315 314 310 307 305 305 305 306 307 309 309 309 310 311 312 312 311 311 311 311 310 309 309 309 311 311 311 310 309 308 308 309 309 309 309 310 311 311 310 310 311 310 310 309 308 308 308 308 307 307 305
261 266 269 272 276 281 285 289 293 298 303 306 308 311 313 314 313 313 313 311 309 306 305 304 305 306 308 309 310 310 310 311 312 313 312 312 312 311 311 310 310 310 311 312 311 310 308 308 308 309 310 310 310 311 312 313 312 311 311 311 310 309 308 308 308 309 308 306 305
264 267 270 274 278 284 290 295 300 306 309 310 311 312 314 314 313 311 310 308 307 306 306 306 306 308 309 310 310 310 311 311 312 313 313 313 312 312 312 312 311 311 312 312 312 311 309 309 309 310 310 310 311 312 314 314 313 312 311 310 310 309 309 309 310 310 309 306 304
Height
782 783 783 784 784 784 785 785 786 786 786 786 787 787 787 787 787 787 787 787 787 787 787 787 787 787 787 787 787 787 786 786 785 785 785 784 784 784 784 783 783 783 782 782 781 781 780 779 778 777 777 776 775 774 773 772 771 770 769 768 767 767 765 764 763 762 761 760 759
783 784 784 784 785 785 785 786 786 786 786 786 787 787 787 787 787 787 787 787 787 787 787 787 787 787 787 787 787 787 786 786 785 785 785 784 784 784 784 783 783 782 782 782 781 780 780 779 778 777 776 775 774 773 772 772 771 770 769 768 767 766 765 763 762 761 760 759 758
783 784 784 785 785 785 785 786 786 786 786 787 787 787 787 787 787 787 787 787 787 787 787 787 787 787 787 787 787 787 786 786 785 785 784 784 784 784 783 783 782 782 782 781 780 780 779 778 777 777 776 774 774 773 772 771 770 769 768 767 766 765 764 763 762 761 759 758 757
783 784 784 784 785 785 785 786 786 786 787 787 787 787 787 787 787 787 787 787 787 787 787 787 787 787 787 787 787 787 786 786 785 785 784 784 784 783 783 782 782 782 781 781 780 779 778 778 777 776 775 774 773 772 771 770 769 768 767 766 765 764 763 762 761 760 758 757 756
783 784 784 784 785 785 785 786 786 786 787 787 787 787 787 787 787 787 788 788 788 788 787 787 787 787 787 787 787 786 786 786 785 785 784 784 783 783 783 782 782 781 781 780 779 779 778 777 776 775 774 773 772 772 771 770 768 767 766 765 764 763 762 761 760 759 757 756 755
783 784 784 784 785 785 785 786 786 786 787 787 787 787 787 787 787 788 788 788 788 788 787 787 787 787 787 787 787 786 786 786 785 785 784 784 783 783 782 782 781 781 780 779 779 778 777 776 775 774 773 772 772 771 770 769 768 767 765 764 763 762 761 760 759 757 756 755 753
784 784 784 785 785 785 786 786 786 786 787 787 787 787 787 787 787 788 788 788 788 788 788 787 787 787 787 787 786 786 786 785 785 784 784 783 783 782 782 781 781 780 779 779 778 777 777 776 775 773 772 772 771 770 769 768 767 766 764 763 762 761 760 759 757 757 755 753 752
784 784 784 785 785 785 786 786 786 786 787 787 787 787 787 787 787 788 788 788 788 788 788 788 787 787 787 787 786 786 785 785 784 784 784 783 782 782 781 781 780 779 779 778 777 777 776 775 774 773 772 771 770 769 768 767 766 765 763 762 761 760 759 758 757 755 754 752 751
784 784 784 785 785 785 786 786 786 786 787 787 787 787 787 787 788 788 788 788 788 788 788 788 787 787 787 786 786 786 785 785 784 784 783 782 782 782 781 780 779 779 778 777 777 776 775 774 773 772 771 770 769 768 767 766 765 763 762 761 759 758 757 757 755 754 752 751 749
784 784 784 785 785 785 786 786 786 786 787 787 787 787 787 788 788 788 788 788 788 788 788 788 787 787 787 786 786 785 785 784 784 783 783 782 782 781 780 779 779 778 777 777 776 775 774 773 772 771 770 769 768 767 766 765 764 762 761 759 758 757 755 755 754 752 751 749 748
784 784 784 785 785 785 786 786 786 786 787 787 787 787 788 788 788 788 788 788 788 788 788 787 787 787 786 786 785 785 785 784 783 783 782 782 781 780 780 779 778 777 776 776 775 774 773 772 771 769 769 768 767 766 764 763 762 761 759 758 757 756 754 753 752 751 750 748 746
784 784 784 785 785 785 785 786 786 786 787 787 787 787 788 788 788 788 788 788 788 788 788 787 787 787 786 786 785 785 784 784 783 782 782 781 780 780 779 778 777 777 776 775 774 773 772 771 770 768 767 766 766 765 763 762 761 760 758 757 756 754 753 752 751 749 748 747 745
784 784 784 785 785 785 785 786 786 787 787 787 787 787 788 788 788 788 788 788 788 788 787 787 787 786 786 785 785 784 784 783 782 782 781 780 780 779 778 777 776 776 775 774 773 772 771 770 769 767 766 765 764 763 762 761 760 758 757 756 754 753 752 751 749 748 747 745 744
784 784 785 785 785 785 785 786 786 786 787 787 787 787 788 788 788 788 788 788 788 787 787 787 787 786 786 785 784 784 783 782 782 781 781 780 779 778 777 776 775 775 774 772 772 771 770 769 767 767 765 764 762 762 761 760 759 757 756 755 753 752 751 750 748 747 746 744 742
784 785 785 785 785 785 785 786 786 786 787 787 787 787 788 788 788 788 788 787 787 787 787 787 786 786 785 784 784 783 783 782 781 781 780 779 778 777 776 775 774 773 772 772 771 770 769 768 767 765 764 763 762 760 759 758 757 756 755 754 752 751 750 749 747 746 745 743 742
784 785 785 785 785 785 786 786 786 786 786 787 787 787 787 788 788 788 787 787 787 787 787 786 786 785 784 784 783 782 782 781 781 780 779 778 777 776 775 774 773 772 771 770 769 768 767 767 766 764 763 762 760 759 758 757 756 755 754 753 752 751 749 748 747 746 744 743 741
784 785 785 785 785 785 786 786 786 786 786 787 787 787 787 787 787 787 787 787 787 787 786 786 785 784 784 783 782 782 781 780 780 779 778 777 776 775 774 773 772 772 770 769 768 767 766 765 764 763 762 761 759 758 757 756 755 753 752 752 751 750 749 747 746 745 743 742 740
784 785 785 785 785 785 786 786 786 786 786 786 787 787 787 787 787 787 787 787 787 786 786 785 784 784 783 782 782 781 781 780 779 778 777 776 775 774 773 772 771 770 769 768 767 766 765 764 763 762 761 759 758 757 756 755 753 752 751 750 749 749 748 747 746 744 743 741 739
784 785 785 785 785 786 786 785 785 785 786 786 787 787 787 787 787 787 787 786 786 786 785 784 784 783 782 782 781 780 780 779 778 777 776 775 774 773 772 771 770 769 768 767 766 765 764 762 761 760 759 758 757 756 754 753 752 751 750 749 748 747 747 746 744 743 742 741 739
784 785 785 785 785 785 785 785 785 785 786 786 787 787 787 787 787 787 786 786 786 785 784 784 783 782 782 781 780 780 779 778 777 776 775 774 773 772 771 770 769 768 767 766 765 764 762 761 760 759 758 757 755 754 753 752 751 750 749 748 747 746 745 744 743 742 741 739 738
784 785 785 785 785 785 785 785 785 785 786 786 787 787 787 787 787 786 786 786 785 784 784 783 782 782 781 780 780 779 778 777 776 775 774 773 772 771 770 769 768 767 766 765 764 762 761 760 759 758 757 755 754 753 752 751 749 748 747 747 746 745 744 743 742 741 739 738 737
784 785 785 785 785 785 785 785 785 785 786 786 786 787 787 786 786 786 786 785 784 784 783 782 782 781 781 780 779 778 777 776 775 774 773 772 771 770 769 768 767 766 765 764 762 761 760 759 758 757 755 754 753 752 751 750 748 747 746 745 744 743 742 741 740 739 738 737 735
784 785 785 785 785 785 785 785 785 785 786 786 786 786 786 786 786 785 785 784 784 783 782 782 781 781 780 779 778 777 776 775 774 773 772 771 770 769 768 767 766 765 763 762 761 760 759 757 756 755 754 753 752 750 749 748 747 746 745 743 742 742 741 740 739 738 736 735 733
784 785 785 785 785 785 785 785 785 785 786 786 786 786 786 786 785 785 784 784 783 783 782 781 781 780 779 778 777 777 775 774 773 772 771 770 769 768 767 766 765 764 762 762 760 759 758 757 755 754 753 752 751 749 748 747 746 745 743 742 741 740 739 738 737 736 735 733 732
784 784 785 785 785 785 785 785 785 785 786 786 786 786 785 785 785 784 784 783 782 782 781 781 780 779 778 777 777 776 775 773 772 771 770 769 768 767 766 765 764 763 762 761 760 759 758 757 755 753 752 751 749 748 747 746 745 744 742 742 740 739 737 736 735 734 733 732 730
784 784 785 785 785 785 785 785 785 786 786 786 785 785 785 784 784 783 783 782 782 782 781 780 779 778 777 777 776 774 773 772 772 770 769 768 767 766 765 764 763 762 761 759 759 758 757 756 754 753 752 750 748 747 746 744 744 743 742 741 739 738 737 735 733 732 731 730 729
784 784 785 785 785 785 785 785 785 786 785 785 785 784 784 784 783 783 782 782 782 781 780 779 778 777 777 776 775 773 772 772 771 769 768 767 766 765 764 762 762 761 759 758 758 757 756 754 753 752 751 749 748 746 745 743 742 741 741 740 738 737 736 735 733 731 730 728 727
784 784 784 784 785 785 785 785 785 785 785 785 785 784 784 783 783 782 782 781 781 780 779 778 777 777 776 774 773 772 772 771 769 768 767 767 765 764 762 762 761 760 758 758 757 756 754 753 752 751 750 748 747 745 744 742 741 740 739 738 737 737 735 734 732 731 729 727 725
784 784 784 784 784 784 785 785 785 785 785 784 784 784 783 783 782 782 781 781 780 779 778 777 776 775 774 773 772 772 771 770 768 767 766 765 764 763 762 761 759 758 757 757 756 754 753 752 751 750 749 747 746 744 743 742 740 739 738 737 737 736 734 733 731 730 728 726 724
783 783 783 783 784 784 784 785 785 785 784 784 784 783 783 782 782 781 781 780 779 778 777 776 775 774 773 772 772 771 769 768 767 767 765 764 763 762 761 760 758 757 756 755 754 753 752 751 750 748 747 746 745 743 742 740 739 738 737 736 735 734 733 732 730 728 727 725 723
783 783 783 783 783 784 784 784 784 784 784 784 783 783 782 782 781 781 780 779 778 777 776 776 774 773 772 772 771 770 768 767 767 765 764 763 762 761 759 758 757 756 755 754 753 752 751 750 748 747 746 745 744 742 741 739 738 737 736 735 734 733 732 731 729 727 726 725 723
782 782 783 783 783 783 783 784 784 783 783 783 782 782 782 781 780 780 779 778 777 776 775 774 773 772 771 770 769 769 767 766 765 764 763 762 761 759 758 757 756 755 754 753 752 751 750 748 747 746 745 744 742 741 739 738 737 736 735 734 733 732 731 730 728 727 725 724 722
782 782 782 783 783 783 783 783 783 783 783 782 782 782 781 780 779 779 778 777 776 775 774 773 772 771 770 769 768 767 766 765 764 763 762 761 760 758 757 756 755 754 753 752 751 750 749 747 746 745 743 742 741 739 738 737 736 735 734 733 732 731 730 728 727 726 724 723 722
782 782 782 782 783 783 783 783 783 782 782 782 781 781 780 779 778 777 777 776 775 774 773 772 772 771 770 769 767 766 765 764 763 762 761 760 758 757 756 754 753 752 752 751 750 748 747 746 745 743 742 741 739 738 737 735 734 733 732 732 731 730 728 727 726 725 724 722 721
782 782 782 782 782 782 782 782 782 782 782 781 781 780 779 778 777 777 776 775 774 773 772 772 771 770 769 768 767 766 764 763 762 761 760 758 757 756 754 753 752 751 750 749 748 747 746 744 743 742 740 739 738 736 735 734 733 732 731 730 729 728 727 726 725 724 722 721 719
782 782 782 782 782 782 782 782 782 781 781 780 780 779 778 777 777 776 775 774 773 772 771 770 770 769 767 767 766 765 763 762 761 759 758 757 756 754 753 752 750 749 749 748 747 746 744 743 742 740 739 737 736 735 734 732 732 730 729 728 727 726 726 724 723 722 721 719 718
782 782 782 782 782 782 781 781 781 780 780 779 779 778 777 776 776 775 774 773 772 771 770 769 769 767 767 766 764 763 762 761 760 758 757 756 755 753 751 750 749 748 747 746 745 744 743 742 741 739 738 736 735 733 732 731 730 729 728 727 726 725 724 723 722 720 719 718 716
781 781 781 782 781 781 781 780 780 780 779 778 778 777 776 775 774 774 773 772 772 771 770 769 768 767 766 765 763 762 761 760 759 757 756 755 754 752 750 748 747 746 746 745 744 743 742 741 739 738 737 735 733 732 731 730 729 728 727 726 724 723 722 722 720 718 717 716 714
781 781 781 781 781 780 780 780 779 779 778 777 777 776 775 775 774 773 772 772 771 770 769 768 767 766 765 764 762 761 760 759 758 757 755 753 752 751 750 748 746 745 744 743 742 742 740 739 738 737 735 734 732 731 730 729 727 727 726 724 723 722 721 720 718 717 715 714 712
780 780 780 780 780 780 779 779 778 778 777 777 776 775 774 774 773 772 772 771 771 770 768 767 766 765 764 762 761 760 758 757 756 755 754 752 751 750 749 747 745 744 743 742 741 740 739 738 737 735 734 733 732 730 729 728 727 725 724 723 722 720 719 717 717 715 713 711 709
780 780 780 780 779 779 779 778 777 777 777 776 775 774 774 773 772 772 771 770 770 769 768 766 765 764 763 762 760 758 757 756 755 754 753 751 750 749 748 746 744 742 742 741 740 738 737 736 735 734 733 732 731 729 728 727 726 724 723 722 721 719 717 716 714 713 712 709 707